2021-013A

Last updated on Thu Feb 25 2021 00:02:13 GMT+0000 (Coordinated Universal Time)

1 47689U 21013A 21055.59914352 .00002278 00000-0 49485-4 0 9995 2 47689 51.6437 179.5949 0002956 48.9734 126.6744 15.49003257271144
UTC large
Height (km)
Speed (km/s)
/
Latitude / Longitude
Inclination (degrees)
Orbital Period (minutes)
Azimuth
Elevation
Range (km)
Doppler Factor

Next 0 passes for location: London (51.5072 / 0.1276)

Sorry there are no passes over London.